CW5193 New Chelsea NF CA current weather conditions

sailwx.info

Wind from 180 at 5 knots gusting 9

Air temperature 6.1° C
Dewpoint 3.8° C

Last reported at 2014-Oct-23 02:43 UTC.
Time now 2014-Oct-23 03:46 UTC

Location: N 48°02' W 053°13'.
View on Google Maps.

See reports from other nearby stations

  
Tides and Currents Weather Stations Pressure Air Temp Water Temp Dewpoint Dewpoint Depression Visibility Wind Speed Wind Dir Waves Ship Positions
date/time (UTC)wind fromknots sea level pressurealtimeterstation pressurevisibilityair tempwater tempwave heightnotes
2014-Oct-23 02:43 180 5 gusting 9 6.1
2014-Oct-23 02:33 170 3 gusting 6 6.1
2014-Oct-23 02:23 159 4 gusting 8 6.1
2014-Oct-23 02:13 161 3 gusting 8 6.1
2014-Oct-23 02:03 152 6 gusting 8 6.1
2014-Oct-23 01:53 144 6 gusting 7 6.1
2014-Oct-23 01:43 155 4 gusting 8 6.1
2014-Oct-23 01:33 159 4 gusting 7 6.1
2014-Oct-23 01:23 155 3 gusting 7 6.1
2014-Oct-23 01:13 159 3 gusting 8 6.1
2014-Oct-23 01:03 153 6 gusting 8 6.1
2014-Oct-23 00:53 153 5 gusting 8 6.1
2014-Oct-23 00:43 165 5 gusting 8 6.7
2014-Oct-23 00:33 161 4 gusting 9 6.7
2014-Oct-23 00:23 143 6 gusting 8 6.1
2014-Oct-23 00:13 155 5 gusting 8 6.1
2014-Oct-23 00:03 155 6 gusting 8 6.1
2014-Oct-22 23:53 150 6 gusting 9 6.1
2014-Oct-22 23:43 160 6 gusting 8 6.1
2014-Oct-22 23:33 155 6 gusting 8 6.1
2014-Oct-22 23:23 148 6 gusting 8 6.1
2014-Oct-22 23:13 162 6 gusting 8 6.7
2014-Oct-22 23:03 151 5 gusting 7 6.7
2014-Oct-22 22:53 153 4 gusting 6 6.7
2014-Oct-22 22:43 159 3 gusting 8 6.7
2014-Oct-22 22:33 142 4 gusting 8 6.7
2014-Oct-22 22:23 159 3 gusting 6 6.7
2014-Oct-22 22:13 134 3 gusting 7 7.2
2014-Oct-22 22:03 107 3 gusting 6 7.2
2014-Oct-22 21:53 138 2 gusting 5 7.2
2014-Oct-22 21:43 138 1 gusting 5 7.2
2014-Oct-22 21:33 093 1 gusting 4 7.8
2014-Oct-22 21:23 085 7.8
2014-Oct-22 21:13 084 0 gusting 4 7.8
2014-Oct-22 21:03 078 2 gusting 3 7.8
2014-Oct-22 20:53 078 2 gusting 3 7.8
2014-Oct-22 20:43 078 0 gusting 3 8.3
2014-Oct-22 20:33 078 2 gusting 4 8.3
2014-Oct-22 20:23 076 4 gusting 4 8.3
2014-Oct-22 20:13 076 2 gusting 4 8.3
2014-Oct-22 20:03 075 2 gusting 4 8.3
2014-Oct-22 19:53 075 3 gusting 4 8.3
2014-Oct-22 19:43 076 3 gusting 6 8.3
2014-Oct-22 19:33 083 4 gusting 5 8.3
2014-Oct-22 19:23 084 4 gusting 6 8.3
2014-Oct-22 19:13 059 4 gusting 6 8.3
2014-Oct-22 19:03 069 4 gusting 5 8.3
2014-Oct-22 18:53 053 2 gusting 4 8.3
2014-Oct-22 18:43 053 2 gusting 4 8.3
2014-Oct-22 18:33 053 3 gusting 4 8.9
2014-Oct-22 18:23 052 2 gusting 5 8.9
2014-Oct-22 18:13 053 2 gusting 4 8.9
2014-Oct-22 18:03 052 2 gusting 5 8.9
2014-Oct-22 17:53 055 1 gusting 4 8.9
2014-Oct-22 17:43 055 2 gusting 4 8.9
2014-Oct-22 17:33 055 3 gusting 5 8.9
2014-Oct-22 17:23 054 3 gusting 6 8.9
2014-Oct-22 17:13 061 4 gusting 6 8.9
2014-Oct-22 17:03 049 1 gusting 5 8.9
2014-Oct-22 16:53 053 3 gusting 5 8.9
2014-Oct-22 16:43 053 3 gusting 5 8.9
2014-Oct-22 16:33 053 4 gusting 6 8.9
2014-Oct-22 16:23 063 3 gusting 5 8.9
2014-Oct-22 16:13 061 4 gusting 5 8.9
2014-Oct-22 16:03 341 3 gusting 5 8.9
2014-Oct-22 15:53 341 0 gusting 5 8.9
2014-Oct-22 15:43 048 2 gusting 4 8.9
2014-Oct-22 15:33 060 8.3
2014-Oct-22 15:23 064 3 gusting 4 8.3
2014-Oct-22 15:13 064 2 gusting 4 8.3
2014-Oct-22 15:03 064 2 gusting 4 8.3
2014-Oct-22 14:53 064 1 gusting 3 8.3
2014-Oct-22 14:43 064 2 gusting 3 8.3
2014-Oct-22 14:33 064 8.3
2014-Oct-22 14:23 064 8.3
2014-Oct-22 14:13 064 8.3
2014-Oct-22 14:03 064 8.3
2014-Oct-22 13:53 064 2 gusting 4 7.8
2014-Oct-22 13:43 064 2 gusting 4 8.3
2014-Oct-22 13:33 064 1 gusting 5 8.3
2014-Oct-22 13:23 065 3 gusting 5 8.3
2014-Oct-22 13:13 059 0 gusting 2 8.3
2014-Oct-22 13:03 059 1 gusting 3 8.3
2014-Oct-22 12:53 059 3 gusting 5 8.3
2014-Oct-22 12:43 059 2 gusting 6 8.3
2014-Oct-22 12:33 061 4 gusting 6 8.3
2014-Oct-22 12:23 059 3 gusting 6 8.3
2014-Oct-22 12:13 062 4 gusting 7 8.3
2014-Oct-22 12:03 035 3 gusting 8 8.3
2014-Oct-22 11:53 052 4 gusting 6 8.3
2014-Oct-22 11:43 053 3 gusting 8 8.3
2014-Oct-22 11:33 045 3 gusting 5 8.3
2014-Oct-22 11:23 032 2 gusting 6 8.3
2014-Oct-22 11:13 013 2 gusting 6 8.3
2014-Oct-22 11:03 033 3 gusting 6 7.8
2014-Oct-22 10:53 029 3 gusting 8 7.8
2014-Oct-22 10:43 018 2 gusting 5 7.2
2014-Oct-22 10:33 017 3 gusting 5 6.7
2014-Oct-22 10:23 005 1 gusting 5 6.7
2014-Oct-22 10:13 360 0 gusting 8 6.7
2014-Oct-22 10:03 355 2 gusting 6 6.7
2014-Oct-22 09:53 005 2 gusting 6 6.7
2014-Oct-22 09:43 344 4 gusting 6 6.7
2014-Oct-22 09:33 330 4 gusting 6 6.7
2014-Oct-22 09:23 316 0 gusting 6 6.7
2014-Oct-22 09:13 005 4 gusting 7 6.7
2014-Oct-22 09:03 323 6.7
2014-Oct-22 08:53 313 2 gusting 6 6.1
2014-Oct-22 08:43 291 2 gusting 3 5.6
2014-Oct-22 08:33 292 6.7
2014-Oct-22 08:23 291 1 gusting 3 6.7
2014-Oct-22 08:13 292 6.7
2014-Oct-22 08:03 304 1 gusting 2 7.2
2014-Oct-22 07:53 304 0 gusting 7 7.2
2014-Oct-22 07:43 310 0 gusting 7 7.8
2014-Oct-22 07:33 349 3 gusting 9 7.8
2014-Oct-22 07:23 290 7.8
2014-Oct-22 07:13 307 4 gusting 6 7.8
2014-Oct-22 07:03 318 1 gusting 7 7.8
2014-Oct-22 06:53 321 3 gusting 5 7.8
2014-Oct-22 06:43 309 0 gusting 8 7.8
2014-Oct-22 06:33 275 3 gusting 7 7.8
2014-Oct-22 06:23 265 0 gusting 9 7.8
2014-Oct-22 06:13 292 4 gusting 9 7.8
2014-Oct-22 06:03 302 3 gusting 8 7.8
2014-Oct-22 05:53 293 5 gusting 11 8.3
2014-Oct-22 05:43 293 3 gusting 10 8.3
2014-Oct-22 05:33 277 5 gusting 8 8.3
2014-Oct-22 05:23 279 5 gusting 11 8.3
2014-Oct-22 05:13 249 2 gusting 10 8.3
2014-Oct-22 05:03 292 2 gusting 9 8.3
2014-Oct-22 04:53 290 4 gusting 8 8.3
2014-Oct-22 04:43 298 2 gusting 12 8.3
2014-Oct-22 04:33 257 4 gusting 8 8.9
2014-Oct-22 04:23 250 4 gusting 10 8.9
2014-Oct-22 04:13 246 3 gusting 13 8.9
2014-Oct-22 04:03 282 3 gusting 8 8.9
2014-Oct-22 03:53 307 3 gusting 10 8.9
2014-Oct-22 03:43 264 2 gusting 9 8.9
2014-Oct-22 03:33 257 3 gusting 7 8.9
2014-Oct-22 03:23 277 4 gusting 8 8.9
2014-Oct-22 03:13 259 3 gusting 10 8.9
2014-Oct-22 03:03 281 3 gusting 8 8.9
2014-Oct-22 02:53 278 4 gusting 8 8.9
2014-Oct-22 02:43 222 2 gusting 10 8.9
2014-Oct-22 02:33 252 6 gusting 10 8.9
2014-Oct-22 02:23 245 6 gusting 10 8.9
2014-Oct-22 02:13 267 3 gusting 9 8.9
2014-Oct-22 02:03 265 5 gusting 8 8.9
2014-Oct-22 01:53 237 5 gusting 8 8.9
2014-Oct-22 01:43 252 4 gusting 11 8.9
2014-Oct-22 01:33 242 3 gusting 8 8.9
2014-Oct-22 01:23 237 2 gusting 6 8.9
2014-Oct-22 01:13 241 4 gusting 7 8.9
2014-Oct-22 01:03 202 2 gusting 6 8.9
2014-Oct-22 00:53 225 4 gusting 7 8.9
2014-Oct-22 00:43 257 5 gusting 8 8.9
2014-Oct-22 00:33 246 2 gusting 9 8.9
2014-Oct-22 00:23 250 4 gusting 8 8.9
2014-Oct-22 00:13 257 3 gusting 8 9.4
2014-Oct-22 00:03 259 3 gusting 7 9.4
2014-Oct-21 23:53 243 3 gusting 8 9.4
2014-Oct-21 23:43 256 3 gusting 7 9.4
2014-Oct-21 23:33 250 2 gusting 6 9.4
2014-Oct-21 23:23 273 5 gusting 13 10.0
2014-Oct-21 23:13 290 6 gusting 10 10.0
2014-Oct-21 23:03 237 5 gusting 9 10.0
2014-Oct-21 22:53 248 5 gusting 10 9.4
2014-Oct-21 22:43 248 5 gusting 15 10.0
2014-Oct-21 22:33 225 6 gusting 9 9.4
2014-Oct-21 22:23 250 2 gusting 8 9.4
2014-Oct-21 22:13 245 4 gusting 8 9.4
2014-Oct-21 22:03 225 4 gusting 8 9.4
2014-Oct-21 21:53 236 5 gusting 10 10.0
2014-Oct-21 21:43 237 5 gusting 10 10.0
2014-Oct-21 21:33 242 2 gusting 8 10.0
2014-Oct-21 21:23 284 4 gusting 11 10.0
2014-Oct-21 21:13 249 5 gusting 14 10.0
2014-Oct-21 21:03 279 4 gusting 11 10.0
2014-Oct-21 20:53 265 5 gusting 10 10.0
2014-Oct-21 20:43 253 4 gusting 13 10.0
2014-Oct-21 20:33 264 4 gusting 11 10.0
2014-Oct-21 20:23 254 5 gusting 10 10.0
2014-Oct-21 20:13 264 1 gusting 11 10.6
2014-Oct-21 20:03 259 1 gusting 10 10.6
2014-Oct-21 19:53 296 5 gusting 11 10.6
2014-Oct-21 19:43 262 6 gusting 11 10.6
2014-Oct-21 19:33 233 5 gusting 13 10.6
2014-Oct-21 19:23 254 2 gusting 12 10.6
2014-Oct-21 19:13 266 7 gusting 13 10.6
2014-Oct-21 19:03 255 7 gusting 18 10.6
2014-Oct-21 18:53 263 9 gusting 13 10.6
2014-Oct-21 18:43 259 7 gusting 18 10.6
2014-Oct-21 18:33 270 4 gusting 13 11.1
2014-Oct-21 18:23 268 7 gusting 14 11.1
2014-Oct-21 18:13 271 11 gusting 15 11.1
2014-Oct-21 18:03 255 6 gusting 14 11.1
2014-Oct-21 17:53 238 6 gusting 18 11.1
2014-Oct-21 17:43 269 12 gusting 16 11.1
2014-Oct-21 17:33 260 6 gusting 14 11.1
2014-Oct-21 17:23 230 10 gusting 17 11.1
2014-Oct-21 17:13 254 12 gusting 21 10.6
2014-Oct-21 17:03 278 9 gusting 21 11.1
2014-Oct-21 16:53 274 11 gusting 19 11.1
2014-Oct-21 16:43 263 8 gusting 19 11.1
2014-Oct-21 16:33 267 12 gusting 19 11.1
2014-Oct-21 16:23 262 10 gusting 21 11.1
2014-Oct-21 16:13 280 10 gusting 19 11.1
2014-Oct-21 16:03 269 11 gusting 21 11.1
2014-Oct-21 15:53 259 13 gusting 22 11.1
2014-Oct-21 15:43 254 12 gusting 21 11.1
2014-Oct-21 15:33 257 7 gusting 24 11.1
2014-Oct-21 15:23 257 16 gusting 21 11.1
2014-Oct-21 15:13 285 15 gusting 26 10.6
2014-Oct-21 15:03 260 11 gusting 23 11.1
2014-Oct-21 14:53 306 15 gusting 21 10.6
2014-Oct-21 14:33 248 8 gusting 24 10.6
2014-Oct-21 14:23 272 13 gusting 24 10.6
2014-Oct-21 14:13 244 9 gusting 26 10.6
2014-Oct-21 14:03 236 9 gusting 23 10.6
2014-Oct-21 13:53 268 18 gusting 28 10.0
2014-Oct-21 13:33 275 11 gusting 28 10.0
2014-Oct-21 13:23 230 12 gusting 26 10.0
2014-Oct-21 13:13 286 12 gusting 25 9.4
2014-Oct-21 13:03 250 12 gusting 23 9.4
2014-Oct-21 12:53 286 13 gusting 23 9.4
2014-Oct-21 12:43 252 10 gusting 25 9.4
2014-Oct-21 12:33 259 10 gusting 24 9.4
2014-Oct-21 12:23 274 16 gusting 26 9.4
2014-Oct-21 12:13 251 17 gusting 28 9.4
2014-Oct-21 12:03 275 16 gusting 28 8.9
2014-Oct-21 11:53 247 16 gusting 24 8.9
2014-Oct-21 11:43 253 15 gusting 25 8.9
2014-Oct-21 11:33 277 14 gusting 26 8.9
2014-Oct-21 11:23 244 13 gusting 28 8.9
2014-Oct-21 11:13 263 14 gusting 27 8.9
2014-Oct-21 11:03 241 14 gusting 27 8.3
2014-Oct-21 10:53 254 16 gusting 24 8.3
2014-Oct-21 10:43 252 13 gusting 26 8.3
2014-Oct-21 10:33 251 12 gusting 25 8.3
2014-Oct-21 10:23 272 8 gusting 20 8.3
2014-Oct-21 10:13 267 8 gusting 26 8.3
2014-Oct-21 10:03 242 14 gusting 25 8.3
2014-Oct-21 09:53 241 14 gusting 28 7.8
2014-Oct-21 09:43 248 11 gusting 22 7.8
2014-Oct-21 09:33 260 16 gusting 26 8.3
2014-Oct-21 09:23 257 10 gusting 26 8.3
2014-Oct-21 09:13 256 13 gusting 29 8.3
2014-Oct-21 09:03 294 17 gusting 28 8.3
2014-Oct-21 08:53 250 12 gusting 27 8.3
2014-Oct-21 08:43 240 19 gusting 31 8.3
2014-Oct-21 08:33 218 16 gusting 27 8.3
2014-Oct-21 08:23 242 16 gusting 38 8.3
2014-Oct-21 08:13 260 18 gusting 30 8.3
2014-Oct-21 08:03 259 17 gusting 28 8.3
2014-Oct-21 07:53 279 19 gusting 28 8.3
2014-Oct-21 07:43 231 12 gusting 29 8.3
2014-Oct-21 07:33 242 10 gusting 28 8.3
2014-Oct-21 07:23 264 14 gusting 28 8.3
2014-Oct-21 07:13 244 11 gusting 28 8.3
2014-Oct-21 07:03 257 15 gusting 27 8.3
2014-Oct-21 06:53 236 17 gusting 26 8.3
2014-Oct-21 06:43 252 10 gusting 28 7.8
2014-Oct-21 06:33 267 11 gusting 24 7.8
2014-Oct-21 06:23 261 24 gusting 29 8.3
2014-Oct-21 06:13 249 14 gusting 26 8.3
2014-Oct-21 06:03 267 14 gusting 31 8.3
2014-Oct-21 05:53 252 20 gusting 33 8.3
2014-Oct-21 05:43 242 18 gusting 29 8.3
2014-Oct-21 05:33 259 16 gusting 28 8.3
2014-Oct-21 05:23 276 19 gusting 31 8.3
2014-Oct-21 05:13 257 16 gusting 33 8.9
2014-Oct-21 05:03 228 16 gusting 27 8.9
2014-Oct-21 04:53 241 18 gusting 34 8.3
2014-Oct-21 04:43 251 18 gusting 34 8.9
2014-Oct-21 04:33 209 13 gusting 28 8.9
2014-Oct-21 04:23 234 19 gusting 28 8.9
2014-Oct-21 04:13 267 17 gusting 27 8.9
2014-Oct-21 04:03 217 15 gusting 28 8.9
2014-Oct-21 03:53 264 18 gusting 28 8.9
2014-Oct-21 03:43 259 14 gusting 26 8.9
2014-Oct-21 03:33 245 15 gusting 26 8.9
2014-Oct-21 03:23 191 13 gusting 26 8.9
2014-Oct-21 03:13 261 18 gusting 29 8.9
2014-Oct-21 03:03 257 12 gusting 29 8.9